Schedule Details


Flight Number: CTN451
Departure: Schiphol (EHAM) at 11:20
Arrival: Franjo Tudman (LDZA) at 13:10
Route: EDUPO UZ738 NAPRO Z739 DEPAD UZ738 MISGO UZ741 GMH UL603 LATLO DCT BERTA DCT ARGOM

Weather Information
EHAM 092355Z 06009KT CAVOK 08/05 Q1028 NOSIG
LDZA 100000Z 25005KT CAVOK 05/M00 Q1021 NOSIG
Schedule Frequency

Route Map